Flag for Saudi Arabia Weather past 2 weeks in Qatif, Saudi Arabia

Now
97 °F

Clear.


Feels Like: 99 °F
Forecast: 83 / 107 °F
Wind: 10 mph from East

Location: King Fahd International Airport

Current Time: Jul 31, 2014 at 7:43:31 PM

Latest Report: Jul 31, 2014 at 7:00 PM


Visibility: 5 mi

Pressure: 29.42 "Hg

Humidity: 34%

Dew point: 64 °F

Location of QatifLocation

Historic Weather in Qatif — Graph

°F

Qatif temperature yesterday

Maximum temperature yesterday: 115 °F (at 1:00 PM)
Minimum temperature yesterday: 90 °F (at 12:00 AM)
Average temperature yesterday: 100 °F

Past Weeks' High & Low Weather Summary

 TemperatureHumidityPressure
High115 °F (Jul 30, 1:00 PM)55% (Jul 17, 11:00 PM)29.59 "Hg (Jul 17, 11:00 PM)
Low82 °F (Jul 21, 6:00 AM)7% (Jul 30, 2:00 PM)29.33 "Hg (Jul 17, 4:00 PM)
Average99 °F18%29.45 "Hg
* Reported Jul 16 6:00 PM — Jul 31 6:00 PM, Qatif, Weather by CustomWeather, © 2014

Note: Actual official high and low records may vary slightly from our data, if they occured in-between our weather recording intervals... More about our weather records

Advertising

Qatif weather history for previous 24 hours

 ConditionsComfort  
Time TempWeatherWind HumidityBarometerVisibility
6:00 PM
Jul 31
100 °FSunny.12 mph37%29.39 "Hg5 mi
5:00 PM106 °FSunny.15 mph20%29.39 "Hg10 mi
4:00 PM109 °FSunny.16 mph17%29.39 "Hg10 mi
3:00 PM113 °FSunny.9 mph10%29.42 "Hg10 mi
2:00 PM113 °FSunny.7 mph9%29.42 "Hg10 mi
1:00 PM113 °FSunny.10 mph9%29.45 "Hg10 mi
12:00 PM113 °FSunny.14 mph9%29.45 "Hg10 mi
11:00 AM111 °FSunny.13 mph10%29.47 "Hg10 mi
10:00 AM108 °FSunny.13 mph10%29.47 "Hg10 mi
9:00 AM102 °FSunny.14 mph11%29.47 "Hg10 mi
8:00 AM99 °FSunny.13 mph12%29.47 "Hg10 mi
7:00 AM95 °FSunny.10 mph13%29.45 "Hg10 mi
6:00 AM88 °FSunny.10 mph18%29.45 "Hg10 mi
5:00 AM88 °FClear.10 mph19%29.45 "Hg10 mi
4:00 AM91 °FClear.9 mph26%29.42 "Hg10 mi
3:00 AM90 °FClear.12 mph29%29.42 "Hg10 mi
2:00 AM90 °FClear.8 mph31%29.42 "Hg10 mi
1:00 AM90 °FClear.9 mph31%29.42 "Hg10 mi
12:00 AM91 °FClear.9 mph32%29.45 "Hg10 mi
11:00 PM
Jul 30
91 °FClear.6 mph38%29.45 "Hg10 mi
10:00 PM93 °FClear.5 mph39%29.45 "Hg10 mi
9:00 PM93 °FClear.5 mph47%29.42 "Hg10 mi
8:00 PM95 °FClear.2 mph44%29.42 "Hg10 mi
7:00 PM99 °FClear.7 mph29%29.39 "Hg10 mi
Weather by CustomWeather, © 2014

See weather overviewHow to use our weather pages